TimeHST,TemperatureF,Dew PointF,Humidity,Sea Level PressureIn,VisibilityMPH,Wind Direction,Wind SpeedMPH,Gust SpeedMPH,PrecipitationIn,Events,Conditions,WindDirDegrees,DateUTC
12:54 AM,64.9,64.9,100,30.00,10.0,West,3.5,-,N/A,,Partly Cloudy,270,2014-01-30 10:54:00
1:54 AM,63.0,63.0,100,30.00,10.0,NW,6.9,-,N/A,,Clear,310,2014-01-30 11:54:00
2:54 AM,63.0,63.0,100,29.98,10.0,NW,5.8,-,N/A,,Clear,310,2014-01-30 12:54:00
3:54 AM,64.9,64.9,100,29.96,9.0,WNW,3.5,-,N/A,,Partly Cloudy,300,2014-01-30 13:54:00
4:54 AM,62.1,62.1,100,29.96,8.0,West,4.6,-,N/A,,Clear,280,2014-01-30 14:54:00
5:54 AM,63.0,63.0,100,29.98,10.0,Calm,Calm,-,N/A,,Clear,0,2014-01-30 15:54:00
6:54 AM,64.0,64.0,100,29.99,10.0,Calm,Calm,-,N/A,,Overcast,0,2014-01-30 16:54:00
7:54 AM,66.0,66.0,100,30.01,10.0,ENE,3.5,-,N/A,,Clear,60,2014-01-30 17:54:00
8:54 AM,73.0,68.0,84,30.01,10.0,Calm,Calm,-,N/A,,Clear,0,2014-01-30 18:54:00
9:54 AM,75.0,68.0,79,30.02,10.0,Calm,Calm,-,N/A,,Clear,0,2014-01-30 19:54:00
10:54 AM,77.0,66.0,69,29.99,10.0,Variable,3.5,-,N/A,,Partly Cloudy,0,2014-01-30 20:54:00
11:54 AM,78.1,68.0,71,29.97,8.0,North,8.1,-,N/A,,Partly Cloudy,350,2014-01-30 21:54:00
12:54 PM,78.1,66.9,68,29.93,10.0,North,3.5,-,N/A,,Clear,10,2014-01-30 22:54:00
1:54 PM,78.1,66.9,68,29.90,10.0,NNW,6.9,-,N/A,,Clear,340,2014-01-30 23:54:00
2:54 PM,79.0,64.9,62,29.89,10.0,Calm,Calm,-,N/A,,Partly Cloudy,0,2014-01-31 00:54:00
3:54 PM,79.0,66.9,66,29.88,10.0,North,8.1,-,N/A,,Partly Cloudy,10,2014-01-31 01:54:00
4:54 PM,78.1,68.0,71,29.89,10.0,North,8.1,-,N/A,,Clear,350,2014-01-31 02:54:00
5:54 PM,75.0,68.0,79,29.90,10.0,NNE,4.6,-,N/A,,Clear,30,2014-01-31 03:54:00
6:54 PM,70.0,64.9,84,29.92,10.0,ENE,4.6,-,N/A,,Clear,60,2014-01-31 04:54:00
7:54 PM,66.0,64.0,93,29.94,10.0,NNE,3.5,-,N/A,,Clear,20,2014-01-31 05:54:00
8:54 PM,68.0,66.9,96,29.94,10.0,North,5.8,-,N/A,,Clear,360,2014-01-31 06:54:00
9:54 PM,66.9,66.0,97,29.94,10.0,WNW,3.5,-,N/A,,Clear,300,2014-01-31 07:54:00
10:54 PM,68.0,66.0,93,29.93,10.0,North,5.8,-,N/A,,Clear,10,2014-01-31 08:54:00
11:54 PM,70.0,66.9,90,29.91,10.0,NNE,6.9,-,N/A,,Clear,30,2014-01-31 09:54:00